Tracking 17925 objects as of 22-January-2017
HD Live streaming from Space Station
objects crossing your sky now

SL-8 DEB

Track SL-8 DEB now!
10-day predictions


NORAD ID: 18545
Int'l Code: 1986-100C
Perigee: 883.9 km
Apogee: 902.5 km
Inclination: 82.9 °
Period: 102.7 minutes
Semi major axis: 7264 km
RCS: 0.0131 m2 (small)
Launch date: December 17, 1986
Source: Commonwealth of Independent States (former USSR) (CIS)
Launch site: PLESETSK MISSILE AND SPACE COMPLEX (PKMTR)

Note: This is SATELLITE DEBRIS
Your satellite tracking list
Your tracking list is empty





NASA's NSSDC Master Catalog

Two Line Element Set (TLE):
1 18545U 86100C   17022.23245243  .00000511  00000-0  32291-3 0  9992
2 18545  82.9279 294.1181 0012803 192.9107 292.1207 14.02231534523504
Source of the keplerian elements: AFSPC